Welcome to the New NWS' Forecast!
Most changes are behind the scenes, but click here for differences you might notice.

Regional Weather Roundup (RWR)

Issued by National Weather Service (NWS)

                            
000
ASUS42 KFFC 230710
RWRGA 
WEATHER ROUNDUP FOR GEORGIA
NATIONAL WEATHER SERVICE PEACHTREE CITY GA
300 AM EDT TUE OCT 23 2018

NOTE: "FAIR" INDICATES FEW OR NO CLOUDS BELOW 12,000 FEET WITH NO
SIGNIFICANT WEATHER AND/OR OBSTRUCTIONS TO VISIBILITY. 

* = USE WITH CAUTION. THE STATIONS MARKED WITH AN ASTERISK MAY NOT
REPORT WEATHER SUCH AS PRECIPITATION, FOG, OR THUNDER AND ARE NOT 
QUALITY CONTROLLED BY NWS.

THE REMARK "TC" DENOTES TEMPERATURE READING IN DEGREES CELSIUS.

GAZ001>058-230800-
NORTH GEORGIA
  
CITY           SKY/WX    TMP DP  RH WIND       PRES   REMARKS
ATLANTA        MOCLDY    54  42  64 E5        30.22S                  
ATHENS         FAIR      46  42  86 CALM      30.23S                  
CHAMBLEE       FAIR      46  43  89 N3        30.22F                  
PEACHTREE CITY FAIR      48  46  93 CALM      30.22F                  
ROME           FAIR      44  40  85 N6        30.24S                  
WEST ATLANTA   FAIR      46  45  96 CALM      30.22F                  
GAINESVILLE    FAIR      46  41  82 N3        30.25S                  
CARTERSVILLE   FAIR      42  40  92 CALM      30.24F                  

  
CITY           SKY/WX    TMP DP  RH WIND       PRES   REMARKS
DALTON*        FAIR      41  41 100 CALM      30.27S                  
LAWRENCEVILLE* FAIR      43  42  97 CALM      30.23S                  
MARIETTA       FAIR      47  43  84 CALM      30.22S                  
KENNESAW*      FAIR      46  42  86 CALM      30.24S                  
CANTON*        FAIR      43  37  81 CALM      30.25S                  
BLAIRSVILLE*   FAIR      36  36  99 CALM      30.27S                  
$$

GAZ059>098-102>109-230800-
CENTRAL GEORGIA
  
CITY           SKY/WX    TMP DP  RH WIND       PRES   REMARKS
AUGUSTA-BUSH   FAIR      50  49  96 CALM      30.22S                  
AUGUSTA-DANIEL FAIR      56  48  74 CALM      30.22F                  
COLUMBUS       FAIR      59  51  75 E3        30.18F                  
MACON          FAIR      53  52  96 W3        30.20F                  
ROBINS AFB     PTCLDY    54  53  95 NW3       30.19F                  

  
CITY           SKY/WX    TMP DP  RH WIND       PRES   REMARKS
LAGRANGE*      FAIR      51  51  98 CALM      30.21S                  
SYLVANIA*      FAIR      55  54  95 CALM      30.21F                  
MILLEDGEVILLE* FAIR      54  52  94 CALM      30.22S                  
$$

GAZ099>101-110>166-230800-
SOUTH GEORGIA
  
CITY           SKY/WX    TMP DP  RH WIND       PRES   REMARKS
SAVANNAH       CLOUDY    63  57  81 NE7       30.19S                  
VALDOSTA       FAIR      62  59  90 CALM      30.15F                  
ALMA           MOCLDY    61  57  87 CALM      30.17F                  
ST SIMONS      FAIR      66  62  87 N6        30.14F                  
FT STEWART     CLOUDY    61  57  86 N5        30.16S                  
ALBANY         FAIR      63  57  81 CALM      30.19F                  
HUNTER AFB     FAIR      64  58  79 CALM      30.15F                  
MOODY AFB      FAIR      62  59  91 E5        30.14F                  
BRUNSWICK      FAIR      63  59  88 CALM      30.16S                  

  
CITY           SKY/WX    TMP DP  RH WIND       PRES   REMARKS
BAINBRIDGE*      N/A     63  57  82 CALM      30.16F                  
MOULTRIE*      FAIR      63  57  82 CALM      30.17S                  
VIDALIA*       FAIR      59  54  82 NE3       30.19F                  
WAYCROSS*      FAIR      61  59  91 CALM      30.16F                  
DOUGLAS*       FAIR      63  57  82 NE5       30.18F                  
$$